Wind_Speed
31 29 28 28 27 25 25 26 25 23 23 22 21 20 19 18 17 16 15 14 13 14 14 14 13 13 13 12 13 13 13 14 15 15 16 16 15 16 17 17 16 17 17 17
31 31 30 30 29 28 27 26 26 25 24 23 22 21 20 19 19 18 17 17 16 15 15 15 15 15 15 15 16 16 16 16 16 16 17 17 18 19 18 18 18 18 18 19
32 32 32 31 29 29 28 27 27 26 24 24 24 23 22 21 20 20 19 19 18 18 18 18 18 17 17 17 18 18 18 19 18 18 18 19 19 20 20 19 19 19 20 20
33 33 34 31 30 30 29 28 27 27 27 27 26 25 24 22 22 22 21 20 21 21 20 20 20 19 19 19 19 20 20 21 20 19 19 20 20 21 21 21 20 21 21 22
34 34 34 33 31 31 30 29 29 28 26 26 26 27 26 25 24 24 24 24 24 23 22 22 22 21 21 21 21 22 22 22 22 21 21 21 21 22 22 22 22 23 23 23
33 34 35 33 32 31 32 31 30 29 28 28 28 29 28 27 27 26 27 26 26 26 25 24 24 23 23 24 24 24 24 24 24 24 24 24 23 24 24 23 24 24 24 24
34 34 34 32 32 32 33 31 29 29 28 27 29 29 29 30 29 28 28 28 28 27 27 26 26 26 25 25 26 26 26 26 26 26 26 26 26 26 25 25 25 25 26 26
34 34 34 31 31 31 32 31 30 29 28 29 29 29 30 31 30 29 29 29 29 29 28 28 27 27 28 28 28 28 28 28 28 28 28 28 28 28 27 27 27 27 27 27
35 33 32 31 32 33 33 33 32 30 29 30 31 32 32 32 32 32 30 30 30 30 30 30 30 30 30 30 30 30 30 30 30 30 29 28 28 28 29 29 28 28 28 28
33 33 32 32 32 34 34 34 33 31 31 31 31 32 32 32 32 31 30 31 31 32 33 33 33 32 32 32 32 31 31 31 31 31 31 30 29 30 29 30 30 30 29 29
33 33 33 32 32 33 34 34 33 33 32 32 32 32 32 33 33 33 33 32 32 33 33 33 33 32 32 32 32 32 32 33 33 32 32 31 30 30 30 30 31 30 30 30
32 32 32 32 32 32 33 34 33 32 31 32 32 31 31 32 32 33 32 32 32 32 32 32 32 32 32 32 32 32 33 33 33 33 32 31 30 30 30 31 31 30 31 31
33 33 32 31 31 31 32 32 33 33 33 32 32 31 32 32 32 32 32 32 32 32 33 33 32 32 32 33 33 33 33 33 33 33 32 32 31 31 31 31 32 31 31 32
32 33 32 31 29 30 31 32 33 33 33 33 33 33 32 31 31 31 32 32 31 32 32 32 33 33 34 34 34 34 34 34 34 33 32 32 32 32 32 32 32 32 32 32
31 31 30 29 29 30 31 30 31 32 32 32 32 32 31 31 31 32 33 33 32 31 32 32 33 33 33 34 34 34 33 33 32 32 32 32 32 32 32 32 32 32 32 32
30 28 27 27 28 28 29 29 29 30 30 30 31 31 29 30 31 32 32 33 33 33 32 32 32 32 32 33 33 33 33 33 33 32 32 32 32 32 32 33 33 33 33 33
31 30 28 27 28 28 29 29 30 30 30 30 30 30 29 29 30 30 31 33 33 32 32 32 32 32 32 32 32 32 33 33 33 33 33 32 32 32 32 33 33 33 33 34
27 28 26 26 27 28 28 29 29 30 29 29 28 28 27 28 29 30 31 32 32 31 31 31 31 31 32 32 32 33 33 32 32 32 33 33 33 33 33 33 33 33 33 33
25 25 26 27 27 27 28 28 28 28 29 28 28 27 28 28 28 29 29 29 28 28 29 29 30 30 30 31 31 31 31 32 32 32 32 32 32 33 32 32 32 32 31 31
24 24 25 27 27 27 28 28 27 27 27 27 27 28 27 26 26 27 28 28 27 27 27 27 28 29 29 29 29 29 30 31 30 31 31 31 31 31 31 31 31 30 30 30
23 24 25 25 25 25 26 26 26 26 26 26 25 25 25 24 24 25 26 26 26 27 27 27 27 27 27 28 28 29 29 29 29 29 29 29 30 30 30 30 30 29 29 29
21 22 22 23 23 22 22 22 23 23 23 23 23 23 23 23 23 23 24 24 24 24 25 25 25 25 25 26 26 27 28 28 27 28 28 28 28 28 28 29 29 29 28 29
19 19 20 20 20 20 19 20 21 21 20 20 20 20 21 21 21 21 21 21 21 22 22 23 23 24 24 25 25 26 26 26 25 26 27 27 27 27 27 27 28 28 28 28
16 17 17 18 18 18 18 17 17 17 17 18 18 18 18 19 18 18 19 19 20 20 21 21 22 22 23 23 23 24 24 24 24 24 25 25 26 26 27 27 28 28 29 29
14 15 15 15 15 15 15 14 14 15 15 16 16 16 16 16 16 16 17 18 18 18 19 20 20 20 20 21 21 21 21 22 22 23 24 25 25 26 27 27 27 27 28 28
13 13 13 14 13 13 13 13 12 11 12 13 14 14 15 15 15 15 16 16 17 17 18 19 19 19 19 20 20 20 21 22 23 23 24 25 25 26 27 27 28 28 28 29
10 11 12 12 12 11 11 10 10 10 11 12 13 13 14 14 14 14 15 15 16 17 18 18 19 19 19 19 20 21 22 23 24 24 25 25 26 27 27 28 29 30 30 29
Wind_Direction
229 226 224 225 226 230 236 240 245 249 255 261 267 276 279 278 279 281 275 274 274 274 278 284 287 286 285 291 297 300 304 307 309 306 307 308 307 307 307 303 302 303 303 303
229 228 228 227 228 229 232 237 243 248 252 258 263 267 273 277 278 279 277 279 278 276 281 284 286 286 286 289 292 295 296 298 300 304 305 305 304 305 304 303 301 300 299 299
228 228 228 229 228 229 232 237 242 247 251 255 260 265 270 274 279 281 279 277 277 280 280 282 282 283 285 287 289 290 291 294 297 300 300 300 299 301 302 301 300 299 297 297
228 229 231 230 231 232 234 239 243 247 249 254 258 264 269 272 277 278 277 280 282 280 280 280 280 282 282 281 284 287 290 290 292 296 297 297 297 299 300 300 298 297 296 295
231 232 232 232 233 235 235 238 241 246 250 254 257 261 264 269 273 274 273 275 278 280 278 276 278 280 280 281 283 286 288 290 292 293 293 293 294 296 297 296 295 294 294 295
233 235 236 234 236 237 236 238 241 245 249 252 256 260 265 272 273 272 271 274 277 278 278 277 278 278 280 280 282 284 286 288 290 290 290 291 291 293 295 294 293 293 293 294
233 235 237 237 240 239 239 240 243 248 251 253 255 259 264 270 270 270 272 274 275 276 278 277 278 278 279 279 280 282 285 286 287 289 289 289 288 290 291 291 292 293 293 293
233 235 236 239 242 243 245 245 246 250 254 256 258 262 266 269 269 270 271 274 275 277 277 277 276 277 277 277 278 280 281 283 285 287 288 288 288 286 286 288 290 290 292 293
234 236 239 240 241 243 247 250 251 254 256 258 261 264 268 270 270 269 270 271 272 273 275 276 276 277 275 275 276 278 279 281 283 285 287 286 287 288 287 287 288 289 290 291
236 238 239 239 241 244 248 252 253 255 257 258 261 264 266 269 270 269 271 274 274 275 276 277 278 277 274 274 275 276 277 279 282 283 285 287 288 288 289 289 289 292 292 293
238 240 241 243 244 245 248 251 254 256 258 260 262 265 267 267 268 270 272 272 273 275 276 276 277 276 273 273 274 275 276 278 280 281 285 286 287 288 290 290 290 291 292 292
238 241 244 246 246 248 250 252 253 256 258 260 262 264 265 267 270 270 271 273 274 274 275 276 276 276 274 272 272 274 275 276 278 280 283 284 286 287 288 289 288 289 290 291
240 244 247 247 247 249 249 251 253 257 259 261 263 264 266 268 270 271 270 271 273 274 274 275 276 276 276 275 273 274 274 276 278 280 281 283 284 285 286 288 288 290 290 290
243 245 245 245 246 248 250 255 256 258 261 262 261 263 265 267 268 269 270 272 274 274 273 274 276 276 275 276 276 276 275 276 277 278 280 282 283 283 284 287 288 289 290 289
243 244 244 245 247 250 254 258 259 260 263 265 265 265 265 268 268 268 271 272 274 274 274 275 276 275 275 276 277 277 276 277 278 277 279 280 281 282 283 285 287 287 288 288
243 244 244 244 246 251 255 259 261 262 264 266 267 267 266 266 266 270 271 273 275 276 275 275 274 274 273 274 276 276 276 277 278 278 279 279 281 282 282 283 285 286 287 287
244 246 245 246 249 254 257 258 261 264 267 268 268 268 267 267 268 270 272 274 275 275 274 274 274 273 273 273 274 276 277 278 278 278 280 281 283 284 284 285 286 286 286 286
245 248 250 251 253 258 259 260 261 263 265 266 267 268 268 270 271 273 274 276 276 276 275 275 274 273 273 273 274 275 276 277 278 279 279 281 283 284 285 285 286 286 285 285
248 250 250 252 255 257 260 261 263 265 267 269 270 269 270 271 272 274 276 276 276 276 275 276 276 276 276 275 276 276 277 278 280 280 282 282 283 284 284 285 285 285 286 286
246 249 251 253 256 259 261 262 264 267 268 270 271 270 272 273 273 273 274 276 277 276 276 277 277 278 277 277 278 279 279 280 281 282 284 284 285 284 284 284 285 285 285 286
249 251 252 254 256 259 262 263 264 267 269 272 275 274 274 274 273 274 276 276 277 277 277 277 279 280 280 278 279 279 280 281 282 284 285 286 285 285 284 285 286 286 285 285
249 249 249 251 254 257 260 262 265 268 270 272 275 274 272 274 275 278 278 278 278 277 277 277 279 281 282 281 281 281 282 283 283 284 285 286 286 287 287 287 287 286 286 287
249 249 250 252 254 256 261 264 266 268 268 270 272 272 273 275 276 278 278 277 277 279 280 281 282 283 283 284 284 283 284 285 286 286 286 287 288 289 289 290 290 289 289 290
248 250 251 253 256 259 261 264 264 266 268 270 272 272 273 275 277 277 278 279 280 282 283 284 285 285 284 285 285 285 285 285 287 288 289 290 291 291 291 291 292 291 291 292
250 249 248 250 255 260 265 266 266 267 269 272 273 274 275 276 276 277 280 283 284 286 287 287 287 288 287 287 288 288 288 288 289 290 292 293 293 294 294 294 293 292 293 293
248 249 248 248 252 256 261 267 268 270 273 272 271 272 275 278 280 280 282 285 288 291 290 288 289 291 291 290 290 290 291 291 290 292 293 294 294 295 295 295 296 295 296 297
240 245 249 253 252 251 254 260 266 268 270 272 274 277 279 282 283 283 286 289 291 291 291 291 292 292 292 292 294 295 294 294 294 294 295 295 296 297 297 297 298 298 298 298
Height
5856 5860 5863 5865 5868 5870 5872 5873 5875 5876 5877 5879 5881 5882 5882 5882 5883 5883 5883 5883 5883 5883 5882 5882 5881 5881 5880 5879 5878 5877 5876 5875 5874 5872 5871 5869 5867 5865 5863 5861 5859 5857 5855 5853
5849 5853 5856 5859 5862 5864 5866 5867 5869 5870 5872 5874 5875 5876 5876 5877 5878 5878 5878 5879 5878 5878 5877 5877 5877 5876 5876 5875 5874 5873 5872 5871 5870 5868 5866 5865 5863 5861 5859 5856 5855 5853 5850 5848
5843 5846 5849 5853 5856 5858 5860 5861 5864 5865 5867 5868 5869 5870 5871 5871 5872 5872 5873 5873 5873 5874 5873 5872 5871 5871 5870 5870 5869 5868 5867 5866 5865 5863 5861 5860 5858 5856 5854 5851 5849 5847 5845 5843
5836 5840 5842 5849 5849 5851 5853 5855 5857 5859 5861 5862 5864 5865 5865 5866 5866 5866 5866 5867 5867 5867 5867 5866 5865 5865 5865 5864 5863 5862 5861 5860 5859 5857 5856 5854 5852 5851 5848 5846 5844 5842 5840 5837
5828 5831 5835 5840 5842 5844 5846 5848 5850 5852 5854 5856 5857 5858 5858 5859 5859 5859 5860 5860 5860 5860 5860 5859 5859 5859 5858 5858 5857 5856 5855 5854 5852 5851 5850 5848 5846 5845 5842 5840 5838 5835 5833 5831
5821 5824 5827 5833 5835 5836 5839 5841 5843 5845 5846 5848 5849 5851 5852 5852 5852 5852 5853 5854 5854 5854 5853 5853 5852 5851 5851 5851 5850 5849 5848 5847 5846 5845 5843 5842 5840 5838 5835 5833 5831 5829 5827 5824
5813 5816 5819 5824 5827 5828 5832 5835 5836 5838 5839 5840 5842 5844 5846 5845 5845 5845 5846 5847 5847 5847 5847 5846 5845 5844 5844 5843 5842 5842 5841 5840 5839 5837 5835 5834 5832 5830 5828 5826 5824 5821 5819 5817
5805 5808 5814 5817 5819 5821 5823 5827 5829 5831 5832 5834 5835 5836 5837 5838 5838 5838 5839 5839 5839 5839 5839 5838 5837 5837 5836 5836 5835 5834 5833 5832 5831 5829 5827 5825 5823 5821 5819 5818 5816 5814 5811 5809
5798 5803 5806 5809 5812 5814 5816 5819 5822 5824 5825 5827 5828 5829 5829 5829 5829 5830 5830 5831 5831 5831 5830 5830 5829 5829 5828 5827 5827 5826 5825 5823 5822 5820 5818 5816 5815 5812 5811 5809 5807 5805 5803 5801
5791 5794 5797 5800 5803 5806 5809 5811 5813 5815 5817 5818 5819 5820 5821 5821 5821 5821 5821 5822 5822 5822 5821 5821 5820 5819 5819 5818 5817 5817 5816 5815 5813 5811 5809 5808 5806 5805 5803 5801 5799 5797 5795 5792
5783 5786 5789 5792 5795 5798 5801 5803 5805 5807 5809 5810 5810 5811 5811 5811 5811 5812 5812 5812 5812 5812 5811 5811 5810 5810 5809 5808 5807 5807 5806 5805 5804 5802 5801 5799 5797 5796 5794 5792 5790 5788 5786 5784
5776 5779 5782 5785 5787 5790 5792 5794 5796 5798 5800 5801 5801 5801 5802 5802 5802 5802 5803 5802 5802 5802 5801 5801 5800 5800 5799 5798 5798 5797 5796 5795 5794 5793 5791 5790 5788 5786 5784 5783 5781 5778 5776 5774
5768 5771 5774 5776 5779 5782 5783 5785 5787 5788 5790 5791 5792 5792 5792 5792 5793 5793 5793 5793 5792 5792 5792 5791 5791 5790 5789 5788 5788 5787 5787 5786 5785 5783 5782 5780 5779 5777 5775 5774 5771 5769 5767 5764
5760 5763 5765 5768 5771 5773 5775 5776 5777 5779 5780 5781 5782 5782 5782 5781 5782 5783 5783 5783 5782 5782 5782 5781 5781 5780 5779 5778 5778 5777 5777 5776 5775 5774 5772 5770 5769 5767 5766 5764 5762 5759 5757 5754
5752 5754 5756 5759 5763 5765 5767 5768 5769 5770 5770 5771 5772 5772 5772 5772 5773 5773 5772 5772 5772 5772 5771 5771 5770 5770 5769 5768 5768 5767 5766 5765 5764 5763 5762 5760 5759 5757 5756 5754 5752 5750 5748 5745
5745 5746 5748 5751 5755 5757 5759 5760 5761 5761 5761 5762 5763 5763 5762 5763 5763 5763 5762 5762 5762 5761 5761 5760 5760 5760 5760 5759 5758 5757 5757 5756 5754 5753 5752 5750 5749 5747 5746 5744 5742 5740 5738 5736
5738 5741 5743 5746 5748 5749 5750 5751 5752 5752 5752 5753 5753 5753 5753 5753 5754 5754 5753 5752 5752 5752 5751 5751 5750 5750 5749 5749 5748 5748 5747 5746 5744 5743 5742 5740 5739 5737 5735 5734 5732 5730 5728 5726
5732 5735 5736 5738 5740 5742 5742 5743 5743 5744 5743 5744 5744 5743 5743 5744 5745 5745 5744 5743 5743 5742 5742 5741 5740 5740 5739 5739 5738 5738 5737 5736 5735 5733 5732 5730 5729 5727 5725 5723 5721 5720 5718 5716
5725 5726 5728 5730 5732 5733 5734 5735 5735 5735 5735 5735 5734 5734 5735 5735 5735 5735 5734 5734 5734 5733 5733 5731 5730 5730 5730 5729 5729 5728 5727 5726 5725 5723 5722 5720 5718 5716 5715 5713 5711 5709 5707 5705
5717 5719 5721 5723 5724 5725 5726 5726 5727 5727 5727 5726 5726 5727 5726 5726 5726 5726 5726 5726 5725 5725 5724 5722 5722 5721 5721 5720 5719 5719 5718 5717 5715 5713 5712 5710 5709 5707 5705 5703 5701 5699 5697 5695
5709 5711 5713 5715 5716 5717 5718 5719 5719 5719 5719 5719 5718 5718 5718 5717 5717 5718 5717 5717 5717 5715 5715 5714 5713 5713 5712 5711 5710 5709 5709 5707 5706 5704 5703 5701 5699 5697 5695 5694 5692 5690 5687 5685
5702 5704 5705 5707 5709 5710 5711 5711 5711 5712 5711 5711 5711 5711 5710 5710 5710 5710 5709 5709 5708 5707 5706 5706 5705 5704 5703 5702 5701 5701 5700 5698 5697 5695 5694 5692 5690 5688 5686 5684 5682 5680 5677 5675
5695 5697 5698 5700 5702 5703 5704 5705 5705 5705 5705 5705 5705 5705 5704 5704 5704 5703 5703 5702 5701 5700 5699 5698 5697 5696 5695 5694 5693 5692 5691 5690 5688 5686 5685 5683 5681 5679 5677 5675 5673 5670 5668 5665
5689 5690 5692 5694 5695 5696 5698 5698 5699 5699 5699 5699 5699 5699 5698 5698 5698 5697 5696 5696 5695 5694 5693 5692 5691 5689 5688 5687 5685 5684 5683 5682 5680 5678 5677 5674 5672 5670 5668 5666 5663 5660 5658 5655
5684 5685 5687 5689 5690 5691 5692 5692 5693 5693 5693 5693 5693 5693 5693 5693 5692 5692 5691 5690 5689 5688 5687 5686 5684 5683 5681 5680 5679 5677 5676 5674 5672 5671 5669 5666 5664 5662 5659 5656 5654 5651 5649 5646
5680 5682 5683 5685 5686 5687 5688 5688 5689 5689 5689 5689 5689 5689 5688 5688 5687 5686 5686 5685 5683 5682 5681 5679 5678 5677 5675 5674 5672 5671 5669 5667 5665 5663 5660 5658 5656 5653 5651 5648 5645 5642 5639 5637
5677 5679 5680 5681 5683 5683 5684 5685 5685 5686 5686 5686 5685 5685 5684 5683 5682 5681 5680 5679 5678 5677 5676 5674 5673 5671 5669 5667 5666 5664 5662 5659 5657 5655 5652 5650 5647 5644 5641 5639 5635 5632 5629 5627